TimeWET,TemperatureF,Dew PointF,Humidity,Sea Level PressureIn,VisibilityMPH,Wind Direction,Wind SpeedMPH,Gust SpeedMPH,PrecipitationIn,Events,Conditions,WindDirDegrees,DateUTC
12:00 AM,62,60,90,29.73,4,SE,6.9,,,Rain,Light Rain,140,2012-10-30 00:00:00
12:00 AM,60.8,59.0,94,29.71,3.7,SE,6.9,-,N/A,Rain,Light Rain,140,2012-10-30 00:00:00
12:30 AM,62.6,60.8,94,29.71,3.7,ESE,4.6,-,N/A,Rain,Light Rain,120,2012-10-30 00:30:00
1:00 AM,62.6,60.8,94,29.68,3.7,Calm,Calm,-,N/A,Rain,Light Rain,0,2012-10-30 01:00:00
1:30 AM,62.6,60.8,94,29.68,3.7,Calm,Calm,-,N/A,Rain,Light Rain,0,2012-10-30 01:30:00
2:00 AM,62.6,60.8,94,29.68,-9999.0,Calm,Calm,-,N/A,,Unknown,0,2012-10-30 02:00:00
2:30 AM,62.6,60.8,94,29.65,3.7,ENE,4.6,-,N/A,Rain,Light Rain,70,2012-10-30 02:30:00
3:00 AM,62,61,94,29.65,4,NE,3.5,,,Rain,Light Rain,40,2012-10-30 03:00:00
3:00 AM,62.6,60.8,94,29.65,3.7,NE,3.5,-,N/A,Rain,Light Rain,40,2012-10-30 03:00:00
3:30 AM,60.8,60.8,100,29.65,-9999.0,NNE,6.9,-,N/A,,Unknown,20,2012-10-30 03:30:00
4:00 AM,60.8,59.0,94,29.65,3.7,Calm,Calm,-,N/A,,Mostly Cloudy,0,2012-10-30 04:00:00
4:30 AM,60.8,60.8,100,29.68,3.7,Calm,Calm,-,N/A,,Mostly Cloudy,0,2012-10-30 04:30:00
5:00 AM,62.6,60.8,94,29.68,3.7,Calm,Calm,-,N/A,,Mostly Cloudy,0,2012-10-30 05:00:00
5:30 AM,62.6,60.8,94,29.68,3.1,Calm,Calm,-,N/A,,Mostly Cloudy,0,2012-10-30 05:30:00
6:00 AM,63,62,93,29.71,3,Calm,Calm,,,,Partly Cloudy,,2012-10-30 06:00:00
6:00 AM,62.6,60.8,94,29.71,3.1,Calm,Calm,-,N/A,,Mostly Cloudy,0,2012-10-30 06:00:00
6:30 AM,62.6,60.8,94,29.71,3.1,Calm,Calm,-,N/A,,Mostly Cloudy,0,2012-10-30 06:30:00
6:45 AM,62.6,60.8,94,29.71,1.9,Calm,Calm,-,N/A,,Mostly Cloudy,0,2012-10-30 06:45:00
7:00 AM,64.4,62.6,94,29.71,1.9,SSW,2.3,-,N/A,,Mostly Cloudy,210,2012-10-30 07:00:00
7:30 AM,64.4,62.6,94,29.71,1.9,SSW,8.1,-,N/A,,Mostly Cloudy,210,2012-10-30 07:30:00
8:00 AM,64.4,62.6,94,29.71,3.1,SSW,8.1,-,N/A,,Mostly Cloudy,210,2012-10-30 08:00:00
8:30 AM,64.4,64.4,100,29.71,3.1,SW,10.4,-,N/A,,Mostly Cloudy,220,2012-10-30 08:30:00
9:00 AM,66,64,91,29.71,3,SW,11.5,,,,Overcast,220,2012-10-30 09:00:00
9:00 AM,66.2,64.4,94,29.71,3.1,SW,11.5,-,N/A,,Mostly Cloudy,220,2012-10-30 09:00:00
9:30 AM,66.2,64.4,94,29.68,3.1,SW,11.5,-,N/A,,Mostly Cloudy,220,2012-10-30 09:30:00
10:00 AM,68.0,64.4,88,29.68,3.1,SSW,11.5,-,N/A,,Mostly Cloudy,210,2012-10-30 10:00:00
10:30 AM,66.2,64.4,94,29.68,3.1,SSW,10.4,-,N/A,,Mostly Cloudy,210,2012-10-30 10:30:00
11:00 AM,68.0,64.4,88,29.68,3.1,SSW,11.5,-,N/A,Rain,Light Rain,210,2012-10-30 11:00:00
11:30 AM,68.0,64.4,88,29.65,3.1,SSW,9.2,-,N/A,Rain,Light Rain,210,2012-10-30 11:30:00
12:00 PM,69,65,85,29.65,3,SSW,10.4,,,Rain,Light Rain,210,2012-10-30 12:00:00
12:00 PM,68.0,66.2,94,29.65,3.1,SSW,10.4,-,N/A,Rain,Light Rain,210,2012-10-30 12:00:00
12:30 PM,68.0,64.4,88,29.62,3.1,SW,11.5,-,N/A,Rain,Light Rain,220,2012-10-30 12:30:00
1:00 PM,68.0,64.4,88,29.62,3.1,SSW,9.2,-,N/A,Rain,Light Rain,210,2012-10-30 13:00:00
1:30 PM,68.0,64.4,88,29.59,-9999.0,South,8.1,-,N/A,,Unknown,190,2012-10-30 13:30:00
2:00 PM,68.0,64.4,88,29.56,0.3,South,6.9,-,N/A,Rain,Rain,180,2012-10-30 14:00:00
2:30 PM,68.0,64.4,88,29.53,3.1,SSW,11.5,-,N/A,Rain,Rain,200,2012-10-30 14:30:00
3:00 PM,66,64,90,29.51,2,South,13.8,,,Rain,Light Rain,190,2012-10-30 15:00:00
3:00 PM,66.2,64.4,94,29.50,1.9,South,13.8,32.2,N/A,Rain,Rain,190,2012-10-30 15:00:00
3:14 PM,66.2,64.4,94,29.50,1.9,SW,27.6,47.2,N/A,Rain,Rain,230,2012-10-30 15:14:00
3:30 PM,68.0,64.4,88,29.53,1.9,WSW,31.1,47.2,N/A,Rain,Rain,250,2012-10-30 15:30:00
4:00 PM,66.2,64.4,94,29.50,1.9,WSW,21.9,35.7,N/A,Rain,Rain,240,2012-10-30 16:00:00
4:30 PM,66.2,64.4,94,29.50,1.9,SW,20.7,-,N/A,Rain,Rain,220,2012-10-30 16:30:00
5:00 PM,66.2,64.4,94,29.47,1.9,SW,23.0,34.5,N/A,Rain,Rain,220,2012-10-30 17:00:00
5:30 PM,68.0,64.4,88,29.47,1.9,SW,25.3,36.8,N/A,Rain,Rain,220,2012-10-30 17:30:00
6:00 PM,68,65,86,29.47,2,SW,28.8,,,Rain,Light Rain,230,2012-10-30 18:00:00
6:00 PM,68.0,64.4,88,29.47,1.9,SW,28.8,42.6,N/A,Rain,Rain,230,2012-10-30 18:00:00
6:30 PM,68.0,64.4,88,29.47,1.9,SW,29.9,-,N/A,Rain,Rain,230,2012-10-30 18:30:00
7:00 PM,68.0,64.4,88,29.47,1.9,SW,29.9,43.7,N/A,Rain,Rain,230,2012-10-30 19:00:00
7:30 PM,68.0,64.4,88,29.44,1.9,SW,27.6,-,N/A,Rain,Rain,220,2012-10-30 19:30:00
8:00 PM,66.2,64.4,94,29.44,1.9,SW,27.6,-,N/A,Rain,Rain,220,2012-10-30 20:00:00
8:30 PM,68.0,64.4,88,29.44,1.9,SW,31.1,-,N/A,Rain,Rain,230,2012-10-30 20:30:00
9:00 PM,68.0,64.4,88,29.44,1.9,SW,28.8,-,N/A,Rain,Rain,230,2012-10-30 21:00:00
9:30 PM,68.0,64.4,88,29.47,1.9,WSW,25.3,39.1,N/A,Rain,Rain,240,2012-10-30 21:30:00
10:00 PM,66.2,64.4,94,29.50,1.9,West,19.6,-,N/A,Rain,Rain,260,2012-10-30 22:00:00
10:30 PM,62.6,60.8,94,29.50,1.9,North,12.7,-,N/A,Rain,Rain,10,2012-10-30 22:30:00
11:00 PM,62.6,60.8,94,29.53,3.1,NNE,6.9,-,N/A,Rain,Light Rain,20,2012-10-30 23:00:00
11:30 PM,62.6,60.8,94,29.50,3.1,ESE,3.5,-,N/A,Rain,Light Rain,110,2012-10-30 23:30:00